Flag for India Weather past 2 weeks in Allahabad, Uttar Pradesh, India

Now
108 °F

Haze.


Feels Like: 124 °F
Forecast: 85 / 111 °F
Wind: 3 mph from North

Location: Varanasi / Babatpur

Current Time: May 27, 2015 at 3:43:30 PM

Latest Report: May 27, 2015 at 3:00 PM


Visibility: 3 mi

Pressure: 29.50 "Hg

Humidity: 36%

Dew point: 75 °F

Location of AllahabadLocation

Historic Weather in Allahabad — Graph

°F

Allahabad temperature yesterday

Maximum temperature yesterday: 108 °F (at 3:00 PM)
Minimum temperature yesterday: 86 °F (at 5:00 AM)
Average temperature yesterday: 97 °F

Past Weeks' High & Low Weather Summary

 TemperatureHumidityPressure
High113 °F (May 23, 1:00 PM)79% (May 26, 5:00 AM)29.80 "Hg (May 26, 5:00 AM)
Low81 °F (May 13, 6:00 AM)9% (May 23, 2:00 PM)29.36 "Hg (May 18, 6:00 PM)
Average95 °F41%29.58 "Hg
* Reported May 12 2:00 PM — May 27 2:00 PM, Allahabad, Weather by CustomWeather, © 2015

Note: Actual official high and low records may vary slightly from our data, if they occured in-between our weather recording intervals... More about our weather records

Advertising

Allahabad weather history for previous 24 hours

 ConditionsComfort  
Time TempWeatherWind HumidityBarometerVisibility
2:00 PM
Wed, May 27
106 °FHaze.2 mph38%29.53 "Hg3 mi
12:00 PM102 °FHaze.3 mph42%29.59 "Hg3 mi
11:00 AM99 °FHaze.3 mph50%29.59 "Hg2 mi
10:00 AM95 °FHaze.5 mph56%29.59 "Hg2 mi
8:00 AM88 °FHaze.9 mph66%29.59 "Hg2 mi
7:00 AM86 °FHaze.8 mph70%29.59 "Hg2 mi
6:00 AM84 °FHaze.6 mph74%29.59 "Hg2 mi
5:00 AM86 °FHaze.6 mph66%29.56 "Hg2 mi
4:00 AM86 °FHaze.5 mph70%29.53 "Hg2 mi
12:00 AM91 °FHaze.9 mph59%29.56 "Hg2 mi
11:00 PM
Tue, May 26
93 °FHaze.7 mph53%29.56 "Hg2 mi
10:00 PM95 °FHaze.3 mph50%29.56 "Hg2 mi
9:00 PM97 °FHaze.6 mph47%29.56 "Hg2 mi
8:00 PM100 °FHaze.No wind42%29.53 "Hg2 mi
7:00 PM102 °FHaze.No wind40%29.50 "Hg3 mi
6:00 PM104 °FClear.No wind35%29.50 "Hg4 mi
5:00 PM106 °FClear.2 mph36%29.50 "Hg4 mi
3:00 PM108 °FClear.2 mph34%29.53 "Hg4 mi
Weather by CustomWeather, © 2015

See weather overviewHow to use our weather pages